sat.trackr.live / text

‹ back to catalog

QIANFAN-160

NORAD 69119 · 2026-108R

PAYLOAD ACTIVE UNKNOWN

§ Identity

Operator
Country
PRC
Launch date
2026-05-17
Launch site
WSC
Launch vehicle
Mass (kg)
RCS (m²)

External: N2YO · Heavens-Above · Gunter

§ Orbital elements

Epoch: 2026-09-20T05:16:32.734848Z

Period
106.59 min
Inclination
89.0198°
Eccentricity
0.0002398
Mean motion
13.51023957 rev/d
Perigee alt
1,066.7 km
Apogee alt
1,070.3 km
Semi-major
7,446.6 km
B*
1.7303e-4
RAAN
12.5458°
Arg perigee
105.2994°
Mean anomaly
254.8422°
Rev number
1,728

§ Raw data

QIANFAN-1601 69119U 26108R   26263.21982332  .00000124  00000+0  17303-3 0  99952 69119  89.0198  12.5458 0002398 105.2994 254.8422 13.51023957 17281

JSON: /api/v1/satellites/69119 · /tle

For live sub-satellite position, see the globe view (requires WebGL).

§ Visibility from observer

Set your observer location to see the next 7 days of passes ≥ 10°. The values pass through the URL so the page stays shareable.

No JS? Fill the form by hand. The geolocation button needs JavaScript.